Location: Augustenthal
(51.7167°N, 10.2833°E)
Time: 05:48:43
(UTC+00:00)

Cosmos 1455 Rocket - Pass Details

Date: 30 September 2021
Orbit: 606 x 628 km, 82.5° (Epoch: 18 October)

Event Time Altitude Azimuth Distance (km) Brightness Sun altitude
Exits shadow 21:59:21 11° 328° (NNW) 1,911 6.2 -39.3°
Drops below altitude 10° 21:59:44 10° 333° (NNW) 1,988 6.3 -39.4°
Sets 22:02:59 0° 358° (N) 2,905 7.3 -39.5°
